Regional Weather Roundup
Issued by NWS

Home | Current Version | Previous Version | Text Only | Print | Product List | Glossary Off
Versions: 1 2 3 4 5 6 7 8 9 10 11 12 13 14 15 16 17 18 19 20 21 22 23 24 25 26 27

000
ASUS45 KSLC 212110
RWRUT

UTAH REGIONAL WEATHER ROUNDUP
NATIONAL WEATHER SERVICE SALT LAKE CITY UT
300 PM MDT SAT APR 21 2018

UTZ001>011-023>025-212200-

NORTHERN UTAH

CITY           SKY/WX    TMP DP  RH WIND       PRES   REMARKS
BRIGHAM CITY   SUNNY     65  23  20 S8        30.17F
HILL AFB       SUNNY     62  24  23 SW6       30.18F
LOGAN          SUNNY     70  30  22 NE5       30.15F
OGDEN          SUNNY     63  23  21 S6        30.17F
SALT LAKE CITY MOSUNNY   66  31  27 VRB6      30.17F
TOOELE VALLEY  SUNNY     64  32  29 N8        30.18F
WENDOVER       SUNNY     70  22  16 SE12      30.16F
HEBER CITY       N/A     66  30  26 SW14      30.14S
WEST JORDAN    SUNNY     64  33  31 NW13G23   30.18F

$$

UTZ011>015-024>027-212200-

CENTRAL/NORTHEAST UTAH

CITY           SKY/WX    TMP DP  RH WIND       PRES   REMARKS
PROVO AIRPORT  MOSUNNY   63  34  33 VRB5      30.18F
MOAB/CANYONLAN SUNNY     66  34  30 SE8       30.09F
DELTA          SUNNY     63  25  23 CALM      30.20S
PRICE          SUNNY     67  27  22 NW12      30.13S
RICHFIELD      SUNNY     64  30  27 E5        30.17F
ROOSEVELT      SUNNY     63  36  36 E6        30.15F
VERNAL         SUNNY     60  38  43 S8        30.14F

$$

UTZ013>016-019>022-027-212200-

SOUTHERN UTAH

CITY           SKY/WX    TMP DP  RH WIND       PRES   REMARKS
BRYCE CANYON   SUNNY     60  21  22 NW13G20   30.23F
CEDAR CITY     SUNNY     65  24  21 N10       30.19F
MILFORD        SUNNY     65  31  28 N7        30.19F
ST GEORGE      CLEAR     75  29  18 CALM      30.08F
HANKSVILLE     SUNNY     70  30  23 NW3       30.12F
KANAB          SUNNY     75  21  13 SW12      30.15F
BLANDING         N/A     66  28  23 NW12G23   30.20S

$$

REGIONAL REPORTS     COLORADO/ARIZONA

CITY           SKY/WX    TMP DP  RH WIND       PRES   REMARKS
CRAIG, CO      CLOUDY    50  37  61 SW8       30.19S
GRAND JUNCTION MOSUNNY   60  35  39 S8        30.15F
RIFLE, CO      CLOUDY    50  39  66 VRB5      30.20S
MONTROSE, CO   CLOUDY    53  34  48 N5        30.21S
CORTEZ, CO     SUNNY     63  29  27 NW26G33   30.11F
COLORADO CITY    N/A     72  23  16 W13       30.17F
PAGE, AZ       SUNNY     71  27  19 VRB3      30.11F
GRAND CANYON   SUNNY     64  27  24 VRB5      30.22S
KINGMAN, AZ    SUNNY     80  23  12 NW10      30.09F
FLAGSTAFF, AZ  SUNNY     64  23  21 NE6       30.20F

$$

REGIONAL REPORTS    NEVADA/IDAHO/WYOMING

CITY           SKY/WX    TMP DP  RH WIND       PRES   REMARKS
LAS VEGAS, NV  SUNNY     81  26  13 CALM      30.06F
ELY, NY        SUNNY     66  16  14 NE10G20   30.22F
ELKO, NV       SUNNY     69  32  25 W10G17    30.20S
POCATELLO, ID  MOSUNNY   70  28  21 SW15G26   30.13F
BURLEY, ID     SUNNY     68  30  24 W15G29    30.13F
FORT BRIDGER,    N/A     65  17  16 NW13G21   30.20S
EVANSTON, WY   SUNNY     61  22  22 NW16G22   30.20S
ROCK SPRINGS,  SUNNY     62  17  17 NW12G26   30.13S
KEMMERER, WY   SUNNY     59  21  23 W16G24    30.18F

$$




USA.gov is the U.S. government's official web portal to all federal, state and local government web resources and services.